AUA9 LOWW-HKJK

Flight info

Callsign AUA9
Flight time 6h 43m
Altitude 37000
Route ARSIN DCT OSDUK DCT BABOL DCT AKIKA DCT RINAV DCT ADDER DCT DIMIS UL604 PLH/N0481F390 UL604 SALUN L604 MEVDA P557 NUBAR P309 SODIL/N0480F410 P309 AVONO/N0480F400 UA727 ANTAX/N0480F410 UA727 KAMAS KAMAS1A
Aircraft B772/H-SDE2E3FGHIJ5LORVWXY/LB1D1

Departure

Time 2026-04-24 15:07
Airport Vienna International Airport (LOWW)

Arrival

Time 2026-04-24 21:50
Airport Jomo Kenyatta International Airport (HKJK)
Time Latitude Longitude Altitude Speed Heading
2026-04-24 13:46 48.11820 16.56224 613 ft 0 kts 303°
2026-04-24 14:51 48.11819 16.56228 614 ft 3 kts 303°
2026-04-24 14:52 48.11804 16.56261 629 ft 4 kts 302°
2026-04-24 14:52 48.11790 16.56295 629 ft 4 kts 302°
2026-04-24 14:52 48.11775 16.56329 629 ft 4 kts 301°
2026-04-24 14:52 48.11762 16.56364 630 ft 4 kts 300°
2026-04-24 14:53 48.11748 16.56399 629 ft 4 kts 297°
2026-04-24 14:53 48.11742 16.56418 629 ft 0 kts 296°
2026-04-24 14:56 48.11746 16.56407 629 ft 2 kts 296°
2026-04-24 14:56 48.11751 16.56388 629 ft 2 kts 294°
2026-04-24 14:57 48.11755 16.56356 629 ft 4 kts 271°
2026-04-24 14:57 48.11745 16.56321 619 ft 4 kts 232°
2026-04-24 14:57 48.11724 16.56298 627 ft 4 kts 214°
2026-04-24 14:57 48.11702 16.56278 627 ft 4 kts 210°
2026-04-24 14:58 48.11680 16.56260 624 ft 4 kts 206°
2026-04-24 14:58 48.11656 16.56241 626 ft 4 kts 214°
2026-04-24 14:58 48.11631 16.56210 621 ft 5 kts 215°
2026-04-24 14:58 48.11597 16.56182 625 ft 6 kts 205°
2026-04-24 14:59 48.11562 16.56207 626 ft 6 kts 133°
2026-04-24 14:59 48.11540 16.56259 626 ft 6 kts 118°
2026-04-24 14:59 48.11522 16.56313 627 ft 6 kts 116°
2026-04-24 14:59 48.11502 16.56373 617 ft 7 kts 116°
2026-04-24 15:00 48.11480 16.56441 629 ft 7 kts 116°
2026-04-24 15:00 48.11458 16.56510 628 ft 7 kts 115°
2026-04-24 15:00 48.11436 16.56578 625 ft 7 kts 116°
2026-04-24 15:00 48.11414 16.56646 625 ft 7 kts 116°
2026-04-24 15:01 48.11391 16.56715 626 ft 7 kts 116°
2026-04-24 15:01 48.11368 16.56783 629 ft 7 kts 116°
2026-04-24 15:01 48.11346 16.56852 622 ft 7 kts 115°
2026-04-24 15:01 48.11325 16.56921 624 ft 7 kts 115°
2026-04-24 15:02 48.11302 16.56990 622 ft 7 kts 116°
2026-04-24 15:02 48.11279 16.57058 626 ft 7 kts 116°
2026-04-24 15:02 48.11257 16.57127 627 ft 7 kts 116°
2026-04-24 15:02 48.11234 16.57196 626 ft 7 kts 116°
2026-04-24 15:03 48.11220 16.57241 625 ft 7 kts 116°
2026-04-24 15:03 48.11190 16.57332 622 ft 7 kts 116°
2026-04-24 15:03 48.11168 16.57401 623 ft 7 kts 116°
2026-04-24 15:03 48.11146 16.57469 627 ft 7 kts 116°
2026-04-24 15:04 48.11123 16.57537 619 ft 7 kts 116°
2026-04-24 15:04 48.11103 16.57601 621 ft 7 kts 116°
2026-04-24 15:04 48.11071 16.57647 625 ft 7 kts 161°
2026-04-24 15:04 48.11026 16.57633 617 ft 7 kts 203°
2026-04-24 15:05 48.10985 16.57605 625 ft 7 kts 204°
2026-04-24 15:05 48.10945 16.57576 630 ft 6 kts 206°
2026-04-24 15:05 48.10918 16.57550 626 ft 4 kts 230°
2026-04-24 15:05 48.10923 16.57510 627 ft 4 kts 300°
2026-04-24 15:06 48.10932 16.57484 625 ft 0 kts 294°
2026-04-24 15:07 48.10978 16.57339 624 ft 49 kts 296°
2026-04-24 15:07 48.11265 16.56453 630 ft 141 kts 295°
2026-04-24 15:07 48.11799 16.54877 1116 ft 181 kts 297°
2026-04-24 15:07 48.12219 16.53060 2355 ft 195 kts 274°
2026-04-24 15:08 48.11807 16.51088 3673 ft 213 kts 237°
2026-04-24 15:08 48.10660 16.49575 4871 ft 225 kts 220°
2026-04-24 15:08 48.09386 16.48195 5923 ft 221 kts 220°
2026-04-24 15:08 48.07977 16.47175 6403 ft 242 kts 193°
2026-04-24 15:09 48.06223 16.47005 6625 ft 265 kts 185°
2026-04-24 15:09 48.04326 16.47364 6910 ft 283 kts 168°
2026-04-24 15:09 48.02367 16.47559 7337 ft 286 kts 198°
2026-04-24 15:09 48.00658 16.46224 7974 ft 280 kts 224°
2026-04-24 15:10 47.99135 16.44351 8545 ft 288 kts 223°
2026-04-24 15:10 47.97616 16.42383 9178 ft 290 kts 223°
2026-04-24 15:10 47.95772 16.41047 9781 ft 307 kts 191°
2026-04-24 15:10 47.93637 16.41326 10498 ft 313 kts 162°
2026-04-24 15:11 47.91604 16.42549 11184 ft 317 kts 156°
2026-04-24 15:11 47.89565 16.43862 11894 ft 321 kts 158°
2026-04-24 15:11 47.87465 16.45041 12651 ft 324 kts 161°
2026-04-24 15:11 47.85314 16.46070 13407 ft 326 kts 164°
2026-04-24 15:12 47.83116 16.46994 14078 ft 330 kts 165°
2026-04-24 15:12 47.78650 16.48663 15349 ft 336 kts 167°
2026-04-24 15:12 47.76363 16.49476 15999 ft 339 kts 167°
2026-04-24 15:13 47.74065 16.50283 16645 ft 342 kts 167°
2026-04-24 15:13 47.71741 16.51098 17262 ft 345 kts 167°
2026-04-24 15:13 47.69387 16.51923 17907 ft 348 kts 167°
2026-04-24 15:13 47.67023 16.52749 18530 ft 351 kts 167°
2026-04-24 15:14 47.64682 16.53789 18915 ft 355 kts 152°
2026-04-24 15:14 47.62743 16.55965 19282 ft 359 kts 130°
2026-04-24 15:14 47.61393 16.59122 19385 ft 369 kts 111°
2026-04-24 15:14 47.60387 16.62712 19503 ft 386 kts 110°
2026-04-24 15:15 47.59334 16.66454 19627 ft 403 kts 110°
2026-04-24 15:15 47.58209 16.70348 19780 ft 418 kts 111°
2026-04-24 15:15 47.56833 16.74156 19928 ft 428 kts 126°
2026-04-24 15:15 47.54649 16.77210 20275 ft 438 kts 147°
2026-04-24 15:16 47.51995 16.79390 20667 ft 439 kts 152°
2026-04-24 15:16 47.50198 16.80790 20972 ft 442 kts 152°
2026-04-24 15:16 47.47470 16.82912 21556 ft 443 kts 152°
2026-04-24 15:16 47.43852 16.85744 22280 ft 446 kts 151°
2026-04-24 15:17 47.41109 16.87907 22768 ft 449 kts 151°
2026-04-24 15:17 47.38345 16.90100 23241 ft 452 kts 151°
2026-04-24 15:17 47.35565 16.92312 23743 ft 455 kts 151°
2026-04-24 15:17 47.32775 16.94536 24169 ft 457 kts 151°
2026-04-24 15:18 47.29973 16.96770 24587 ft 459 kts 150°
2026-04-24 15:18 47.28112 16.98254 24878 ft 460 kts 150°
2026-04-24 15:18 47.25286 17.00503 25277 ft 463 kts 150°
2026-04-24 15:18 47.21521 17.03493 25809 ft 467 kts 150°
2026-04-24 15:19 47.18654 17.05767 26213 ft 469 kts 150°
2026-04-24 15:19 47.15777 17.08047 26617 ft 471 kts 150°
2026-04-24 15:19 47.13861 17.09563 26883 ft 473 kts 150°
2026-04-24 15:19 47.09974 17.12636 27375 ft 476 kts 150°
2026-04-24 15:20 47.08041 17.14162 27630 ft 478 kts 150°
2026-04-24 15:20 47.05103 17.16479 28003 ft 480 kts 150°
2026-04-24 15:20 47.02154 17.18801 28390 ft 483 kts 150°
2026-04-24 15:20 46.99188 17.21133 28762 ft 485 kts 150°
2026-04-24 15:21 46.95239 17.24233 29233 ft 488 kts 150°
2026-04-24 15:21 46.93217 17.25819 29474 ft 490 kts 150°
2026-04-24 15:21 46.90205 17.28179 29822 ft 492 kts 150°
2026-04-24 15:21 46.87227 17.30509 30141 ft 494 kts 150°
2026-04-24 15:22 46.84192 17.32881 30400 ft 496 kts 150°
2026-04-24 15:22 46.81144 17.35260 30654 ft 498 kts 150°
2026-04-24 15:22 46.78084 17.37645 30883 ft 500 kts 150°
2026-04-24 15:23 46.71927 17.42435 31349 ft 503 kts 150°
2026-04-24 15:23 46.65734 17.47241 31807 ft 505 kts 149°
2026-04-24 15:23 46.62633 17.49641 32092 ft 505 kts 149°
2026-04-24 15:24 46.53387 17.56779 33030 ft 503 kts 149°
2026-04-24 15:25 46.47216 17.61530 33630 ft 502 kts 149°
2026-04-24 15:25 46.41051 17.66264 34216 ft 500 kts 149°
2026-04-24 15:26 46.31881 17.73283 34975 ft 499 kts 149°
2026-04-24 15:27 46.22683 17.80297 35739 ft 498 kts 149°
2026-04-24 15:27 46.13509 17.87265 36451 ft 496 kts 148°
2026-04-24 15:28 46.01303 17.96499 37040 ft 500 kts 148°
2026-04-24 15:29 45.95137 18.01145 37048 ft 499 kts 148°
2026-04-24 15:31 45.73637 18.16103 37051 ft 493 kts 158°
2026-04-24 15:33 45.47547 18.28763 37028 ft 497 kts 158°
2026-04-24 15:34 45.31242 18.36717 37032 ft 497 kts 158°
2026-04-24 15:35 45.14968 18.44603 37044 ft 495 kts 158°
2026-04-24 15:36 45.08456 18.47745 37027 ft 494 kts 158°
2026-04-24 15:36 44.98710 18.52435 37033 ft 493 kts 158°
2026-04-24 15:37 44.92224 18.55547 37031 ft 492 kts 158°
2026-04-24 15:37 44.85790 18.58627 37040 ft 491 kts 158°
2026-04-24 15:38 44.79318 18.61718 37040 ft 491 kts 158°
2026-04-24 15:38 44.72833 18.64738 37042 ft 491 kts 159°
2026-04-24 15:39 44.66317 18.67664 37044 ft 491 kts 159°
2026-04-24 15:39 44.59846 18.70562 37035 ft 491 kts 159°
2026-04-24 15:40 44.53350 18.73482 37054 ft 490 kts 159°
2026-04-24 15:40 44.46849 18.76407 37055 ft 491 kts 159°
2026-04-24 15:41 44.40347 18.79324 37051 ft 491 kts 159°
2026-04-24 15:41 44.33880 18.82219 37050 ft 492 kts 159°
2026-04-24 15:42 44.27363 18.85129 37047 ft 492 kts 159°
2026-04-24 15:42 44.20848 18.88031 37041 ft 492 kts 159°
2026-04-24 15:43 44.14325 18.90930 37038 ft 492 kts 159°
2026-04-24 15:43 44.07804 18.93821 37040 ft 492 kts 159°
2026-04-24 15:44 44.01324 18.96688 37033 ft 491 kts 159°
2026-04-24 15:44 43.94814 18.99560 37027 ft 491 kts 159°
2026-04-24 15:45 43.88310 19.02424 37035 ft 490 kts 159°
2026-04-24 15:45 43.81857 19.05260 37034 ft 490 kts 159°
2026-04-24 15:46 43.75365 19.08104 37018 ft 489 kts 159°
2026-04-24 15:46 43.68878 19.10941 37022 ft 489 kts 159°
2026-04-24 15:47 43.62396 19.13771 37030 ft 489 kts 159°
2026-04-24 15:47 43.55905 19.16596 37033 ft 489 kts 159°
2026-04-24 15:48 43.49449 19.19402 37032 ft 490 kts 159°
2026-04-24 15:48 43.42941 19.22221 37022 ft 490 kts 159°
2026-04-24 15:49 43.36439 19.25033 37031 ft 490 kts 159°
2026-04-24 15:49 43.29932 19.27841 37026 ft 490 kts 159°
2026-04-24 15:50 43.23472 19.30621 37027 ft 489 kts 159°
2026-04-24 15:50 43.16980 19.33410 37021 ft 489 kts 159°
2026-04-24 15:51 43.10490 19.36191 37009 ft 488 kts 159°
2026-04-24 15:51 43.04009 19.38964 37011 ft 488 kts 159°
2026-04-24 15:52 42.97575 19.41708 37011 ft 487 kts 159°
2026-04-24 15:52 42.91102 19.44463 37014 ft 487 kts 159°
2026-04-24 15:53 42.84634 19.47211 37012 ft 486 kts 159°
2026-04-24 15:53 42.78171 19.49952 37005 ft 486 kts 159°
2026-04-24 15:54 42.71753 19.52666 37005 ft 486 kts 159°
2026-04-24 15:54 42.65296 19.55392 37007 ft 486 kts 159°
2026-04-24 15:55 42.58837 19.58113 36994 ft 486 kts 159°
2026-04-24 15:55 42.52363 19.60788 37000 ft 487 kts 161°
2026-04-24 15:56 42.45786 19.63034 37000 ft 488 kts 162°
2026-04-24 15:56 42.39228 19.65190 37001 ft 488 kts 162°
2026-04-24 15:57 42.32625 19.67382 37001 ft 489 kts 162°
2026-04-24 15:57 42.26036 19.69590 36983 ft 487 kts 162°
2026-04-24 15:58 42.19457 19.71787 37012 ft 487 kts 162°
2026-04-24 15:58 42.12876 19.73986 37011 ft 488 kts 162°
2026-04-24 15:59 42.06320 19.76169 37017 ft 489 kts 162°
2026-04-24 15:59 41.99698 19.78369 37000 ft 490 kts 162°
2026-04-24 16:00 41.93103 19.80646 37003 ft 490 kts 161°
2026-04-24 16:00 41.86526 19.83050 37009 ft 490 kts 161°
2026-04-24 16:01 41.79999 19.85436 37008 ft 490 kts 161°
2026-04-24 16:01 41.73415 19.87816 37013 ft 490 kts 161°
2026-04-24 16:02 41.66840 19.90177 37011 ft 489 kts 161°
2026-04-24 16:02 41.60267 19.92531 37016 ft 489 kts 161°
2026-04-24 16:03 41.53697 19.94880 37011 ft 489 kts 161°
2026-04-24 16:03 41.47173 19.97209 37009 ft 488 kts 161°
2026-04-24 16:04 41.40618 19.99542 37014 ft 487 kts 161°
2026-04-24 16:04 41.34074 20.01868 37021 ft 486 kts 161°
2026-04-24 16:05 41.24267 20.05344 37000 ft 486 kts 161°
2026-04-24 16:06 41.14490 20.08801 37001 ft 488 kts 161°
2026-04-24 16:07 41.04646 20.12268 36997 ft 488 kts 161°
2026-04-24 16:07 40.94785 20.15731 37008 ft 489 kts 161°
2026-04-24 16:08 40.84952 20.19175 36989 ft 490 kts 162°
2026-04-24 16:09 40.75064 20.22626 36988 ft 490 kts 162°
2026-04-24 16:09 40.68470 20.24922 37000 ft 490 kts 162°
2026-04-24 16:11 40.52069 20.30830 36992 ft 489 kts 156°
2026-04-24 16:11 40.45933 20.34555 36987 ft 484 kts 150°
2026-04-24 16:12 40.36931 20.40483 36986 ft 485 kts 150°
2026-04-24 16:13 40.27827 20.46354 36974 ft 487 kts 150°
2026-04-24 16:14 40.15705 20.54123 36981 ft 486 kts 151°
2026-04-24 16:14 40.06581 20.59955 36984 ft 487 kts 151°
2026-04-24 16:15 39.97336 20.65588 36968 ft 490 kts 153°
2026-04-24 16:16 39.88040 20.71195 36956 ft 491 kts 153°
2026-04-24 16:17 39.72606 20.80528 36972 ft 491 kts 153°
2026-04-24 16:18 39.60412 20.88533 36964 ft 491 kts 149°
2026-04-24 16:19 39.51412 20.94814 36974 ft 493 kts 150°
2026-04-24 16:20 39.42308 21.01031 36971 ft 494 kts 150°
2026-04-24 16:20 39.33183 21.07223 36982 ft 494 kts 150°
2026-04-24 16:21 39.24091 21.13381 36973 ft 494 kts 151°
2026-04-24 16:22 39.18005 21.17496 36989 ft 494 kts 151°
2026-04-24 16:22 39.08859 21.23662 36992 ft 495 kts 151°
2026-04-24 16:23 39.02761 21.27763 36985 ft 494 kts 151°
2026-04-24 16:24 38.93650 21.33876 36986 ft 495 kts 152°
2026-04-24 16:24 38.87546 21.37961 36979 ft 495 kts 152°
2026-04-24 16:25 38.81435 21.42045 36985 ft 495 kts 152°
2026-04-24 16:25 38.75327 21.46117 36974 ft 495 kts 152°
2026-04-24 16:26 38.66195 21.52187 36986 ft 495 kts 152°
2026-04-24 16:27 38.57020 21.58257 36972 ft 495 kts 152°
2026-04-24 16:27 38.50909 21.62293 36971 ft 494 kts 153°
2026-04-24 16:28 38.44840 21.66295 36970 ft 495 kts 153°
2026-04-24 16:28 38.35660 21.72334 36986 ft 495 kts 153°
2026-04-24 16:29 38.29538 21.76351 36973 ft 495 kts 153°
2026-04-24 16:30 38.17326 21.84342 36982 ft 496 kts 153°
2026-04-24 16:30 38.11187 21.88348 36994 ft 496 kts 154°
2026-04-24 16:31 38.05053 21.92343 36991 ft 496 kts 154°
2026-04-24 16:31 37.98912 21.96335 36987 ft 496 kts 154°
2026-04-24 16:32 37.92771 22.00319 36992 ft 496 kts 154°
2026-04-24 16:32 37.86670 22.04270 36970 ft 496 kts 154°
2026-04-24 16:33 37.80525 22.08242 36964 ft 496 kts 154°
2026-04-24 16:33 37.74374 22.12210 36991 ft 496 kts 154°
2026-04-24 16:34 37.68231 22.16166 36981 ft 495 kts 154°
2026-04-24 16:34 37.62132 22.20086 36988 ft 496 kts 155°
2026-04-24 16:35 37.55986 22.24030 36971 ft 496 kts 155°
2026-04-24 16:35 37.49836 22.27969 36990 ft 496 kts 155°
2026-04-24 16:36 37.43691 22.31898 36984 ft 496 kts 155°
2026-04-24 16:36 37.37578 22.35795 36982 ft 496 kts 155°
2026-04-24 16:37 37.31419 22.39697 36985 ft 496 kts 156°
2026-04-24 16:37 37.25256 22.43596 36982 ft 496 kts 156°
2026-04-24 16:38 37.19100 22.47484 36981 ft 496 kts 156°
2026-04-24 16:38 37.12981 22.51343 36985 ft 496 kts 156°
2026-04-24 16:39 37.06821 22.55223 36987 ft 495 kts 156°
2026-04-24 16:39 37.00666 22.59091 36982 ft 495 kts 156°
2026-04-24 16:40 36.94558 22.62923 36992 ft 494 kts 156°
2026-04-24 16:40 36.88411 22.66772 36984 ft 494 kts 157°
2026-04-24 16:41 36.82268 22.70612 36984 ft 494 kts 157°
2026-04-24 16:41 36.76130 22.74442 36980 ft 493 kts 157°
2026-04-24 16:42 36.69994 22.78264 36983 ft 493 kts 157°
2026-04-24 16:42 36.63904 22.82051 36984 ft 493 kts 158°
2026-04-24 16:43 36.57772 22.85856 36978 ft 492 kts 158°
2026-04-24 16:43 36.51634 22.89658 36980 ft 492 kts 158°
2026-04-24 16:44 36.45500 22.93451 36988 ft 493 kts 158°
2026-04-24 16:44 36.39360 22.97242 36980 ft 493 kts 158°
2026-04-24 16:45 36.33255 23.01004 36996 ft 493 kts 158°
2026-04-24 16:45 36.27101 23.04791 36994 ft 494 kts 159°
2026-04-24 16:46 36.20932 23.08579 36980 ft 495 kts 159°
2026-04-24 16:46 36.14762 23.12363 36978 ft 495 kts 159°
2026-04-24 16:47 36.08592 23.16139 36973 ft 495 kts 159°
2026-04-24 16:47 36.02460 23.19893 36968 ft 495 kts 159°
2026-04-24 16:48 35.96284 23.23669 36958 ft 495 kts 159°
2026-04-24 16:48 35.90114 23.27435 36960 ft 495 kts 159°
2026-04-24 16:49 35.83937 23.31199 36960 ft 495 kts 159°
2026-04-24 16:49 35.77799 23.34931 36954 ft 495 kts 159°
2026-04-24 16:50 35.71623 23.38681 36956 ft 495 kts 160°
2026-04-24 16:50 35.65442 23.42427 36956 ft 495 kts 160°
2026-04-24 16:51 35.59261 23.46167 36953 ft 495 kts 160°
2026-04-24 16:51 35.53074 23.49903 36951 ft 496 kts 160°
2026-04-24 16:52 35.46930 23.53608 36954 ft 496 kts 160°
2026-04-24 16:52 35.40730 23.57340 36941 ft 496 kts 160°
2026-04-24 16:53 35.34528 23.61067 36940 ft 496 kts 160°
2026-04-24 16:53 35.28333 23.64784 36941 ft 496 kts 160°
2026-04-24 16:54 35.22176 23.68476 36929 ft 496 kts 160°
2026-04-24 16:54 35.16032 23.72326 36937 ft 498 kts 159°
2026-04-24 16:55 35.12963 23.74294 37107 ft 499 kts 158°
2026-04-24 16:55 35.09890 23.76268 37320 ft 498 kts 158°
2026-04-24 16:55 35.06828 23.78229 37574 ft 497 kts 158°
2026-04-24 16:55 35.03768 23.80181 37787 ft 496 kts 158°
2026-04-24 16:56 35.00706 23.82125 37973 ft 496 kts 158°
2026-04-24 16:56 34.97641 23.84065 38167 ft 496 kts 159°
2026-04-24 16:56 34.94613 23.85978 38347 ft 496 kts 158°
2026-04-24 16:56 34.91549 23.87912 38538 ft 496 kts 159°
2026-04-24 16:57 34.88484 23.89845 38694 ft 496 kts 158°
2026-04-24 16:57 34.85412 23.91781 38800 ft 497 kts 158°
2026-04-24 16:57 34.79261 23.95653 38905 ft 499 kts 158°
2026-04-24 16:58 34.73098 23.99528 38907 ft 498 kts 158°
2026-04-24 16:58 34.66995 24.03361 38900 ft 496 kts 159°
2026-04-24 16:59 34.60853 24.07209 38900 ft 497 kts 159°
2026-04-24 17:00 34.51658 24.12959 38897 ft 495 kts 159°
2026-04-24 17:00 34.42487 24.18679 38898 ft 494 kts 159°
2026-04-24 17:01 34.33365 24.24354 38896 ft 494 kts 159°
2026-04-24 17:02 34.24189 24.30050 38905 ft 494 kts 159°
2026-04-24 17:02 34.18066 24.33842 38892 ft 495 kts 159°
2026-04-24 17:03 34.08876 24.39524 38873 ft 495 kts 159°
2026-04-24 17:04 34.02792 24.43278 38872 ft 495 kts 159°
2026-04-24 17:04 33.93657 24.49098 38876 ft 496 kts 157°
2026-04-24 17:05 33.87626 24.53132 38871 ft 496 kts 157°
2026-04-24 17:06 33.78614 24.59123 38861 ft 495 kts 157°
2026-04-24 17:06 33.69577 24.65072 38858 ft 493 kts 158°
2026-04-24 17:07 33.63566 24.69016 38859 ft 492 kts 158°
2026-04-24 17:08 33.51610 24.76846 38856 ft 490 kts 158°
2026-04-24 17:08 33.45622 24.80758 38859 ft 490 kts 158°
2026-04-24 17:09 33.33657 24.88558 38858 ft 489 kts 158°
2026-04-24 17:10 33.21736 24.96305 38859 ft 489 kts 158°
2026-04-24 17:12 32.97812 25.11780 38854 ft 489 kts 158°
2026-04-24 18:54 20.29095 32.02075 38829 ft 489 kts 177°
2026-04-24 18:55 20.19149 32.04293 38829 ft 489 kts 176°
2026-04-24 18:56 20.12491 32.05776 38831 ft 489 kts 176°
2026-04-24 18:56 20.05833 32.07257 38823 ft 489 kts 176°
2026-04-24 18:57 19.99178 32.08737 38830 ft 488 kts 176°
2026-04-24 18:57 19.92568 32.10205 38821 ft 488 kts 176°
2026-04-24 18:58 19.85925 32.11680 38831 ft 488 kts 176°
2026-04-24 18:58 19.79285 32.13153 38831 ft 487 kts 176°
2026-04-24 18:59 19.72648 32.14623 38827 ft 487 kts 176°
2026-04-24 18:59 19.66015 32.16092 38830 ft 487 kts 176°
2026-04-24 19:00 19.59430 32.17548 38831 ft 487 kts 176°
2026-04-24 19:00 19.52798 32.19014 38832 ft 487 kts 176°
2026-04-24 19:01 19.46172 32.20477 38826 ft 486 kts 176°
2026-04-24 19:01 19.39551 32.21938 38827 ft 486 kts 176°
2026-04-24 19:02 19.34046 32.23152 38830 ft 486 kts 176°
2026-04-24 19:02 19.26358 32.24846 38827 ft 486 kts 176°
2026-04-24 19:03 19.19743 32.26302 38825 ft 486 kts 176°
2026-04-24 19:03 19.13128 32.27757 38824 ft 486 kts 176°
2026-04-24 19:04 19.06557 32.29201 38828 ft 485 kts 176°
2026-04-24 19:04 18.99942 32.30653 38832 ft 486 kts 176°
2026-04-24 19:05 18.93326 32.32104 38832 ft 486 kts 176°
2026-04-24 19:05 18.86701 32.33557 38823 ft 486 kts 176°
2026-04-24 19:06 18.80125 32.34997 38829 ft 486 kts 176°
2026-04-24 19:06 18.73507 32.36446 38826 ft 486 kts 175°
2026-04-24 19:07 18.66889 32.37893 38821 ft 486 kts 175°
2026-04-24 19:07 18.61389 32.39095 38833 ft 486 kts 175°
2026-04-24 19:08 18.53653 32.40784 38827 ft 486 kts 175°
2026-04-24 19:08 18.47085 32.42217 38828 ft 485 kts 175°
2026-04-24 19:09 18.40479 32.43658 38831 ft 485 kts 175°
2026-04-24 19:09 18.33872 32.45097 38826 ft 485 kts 175°
2026-04-24 19:10 18.27269 32.46534 38829 ft 484 kts 175°
2026-04-24 19:10 18.20711 32.47960 38830 ft 484 kts 175°
2026-04-24 19:11 18.14112 32.49394 38834 ft 484 kts 175°
2026-04-24 19:11 18.07515 32.50827 38829 ft 484 kts 175°
2026-04-24 19:12 18.00915 32.52259 38835 ft 484 kts 175°
2026-04-24 19:12 17.94353 32.53681 38840 ft 485 kts 175°
2026-04-24 19:13 17.88816 32.54881 38837 ft 485 kts 175°
2026-04-24 19:13 17.81129 32.56545 38838 ft 485 kts 175°
2026-04-24 19:14 17.74511 32.57977 38834 ft 486 kts 175°
2026-04-24 19:14 17.67935 32.59399 38840 ft 486 kts 175°
2026-04-24 19:15 17.61309 32.60830 38837 ft 486 kts 175°
2026-04-24 19:15 17.54680 32.62261 38835 ft 487 kts 174°
2026-04-24 19:16 17.44733 32.64406 38826 ft 487 kts 174°
2026-04-24 19:16 17.38146 32.65825 38829 ft 486 kts 174°
2026-04-24 19:17 17.31517 32.67253 38829 ft 486 kts 174°
2026-04-24 19:17 17.24895 32.68678 38835 ft 486 kts 174°
2026-04-24 19:18 17.18277 32.70098 38832 ft 485 kts 174°
2026-04-24 19:18 17.11710 32.71502 38830 ft 485 kts 174°
2026-04-24 19:19 17.05098 32.72914 38832 ft 484 kts 174°
2026-04-24 19:19 16.98501 32.74324 38833 ft 484 kts 174°
2026-04-24 19:20 16.91906 32.75732 38831 ft 483 kts 174°
2026-04-24 19:20 16.85363 32.77128 38832 ft 483 kts 174°
2026-04-24 19:21 16.78777 32.78533 38831 ft 483 kts 174°
2026-04-24 19:21 16.72196 32.79935 38825 ft 483 kts 174°
2026-04-24 19:22 16.65614 32.81337 38826 ft 483 kts 174°
2026-04-24 19:22 16.59027 32.82739 38827 ft 483 kts 173°
2026-04-24 19:23 16.52493 32.84127 38824 ft 482 kts 174°
2026-04-24 19:23 16.45887 32.85260 38827 ft 480 kts 177°
2026-04-24 19:24 16.39270 32.86224 38823 ft 480 kts 177°
2026-04-24 19:24 16.32645 32.87210 38819 ft 481 kts 176°
2026-04-24 19:25 16.26071 32.88226 38823 ft 481 kts 176°
2026-04-24 19:25 16.19447 32.89264 38823 ft 481 kts 176°
2026-04-24 19:26 16.12830 32.90301 38816 ft 481 kts 176°
2026-04-24 19:26 16.06205 32.91337 38824 ft 481 kts 176°
2026-04-24 19:27 15.99628 32.92363 38822 ft 481 kts 176°
2026-04-24 19:27 15.93005 32.93396 38822 ft 481 kts 176°
2026-04-24 19:28 15.86387 32.94427 38821 ft 481 kts 176°
2026-04-24 19:28 15.79758 32.95460 38814 ft 481 kts 176°
2026-04-24 19:29 15.69824 32.97006 38818 ft 481 kts 176°
2026-04-24 19:30 15.63245 32.98029 38816 ft 481 kts 176°
2026-04-24 19:30 15.56625 32.99058 38814 ft 481 kts 176°
2026-04-24 19:31 15.49996 33.00087 38813 ft 482 kts 176°
2026-04-24 19:31 15.43365 33.01116 38808 ft 482 kts 175°
2026-04-24 19:32 15.36780 33.02137 38806 ft 482 kts 175°
2026-04-24 19:32 15.30144 33.03166 38807 ft 482 kts 175°
2026-04-24 19:33 15.23508 33.04194 38807 ft 483 kts 175°
2026-04-24 19:33 15.16855 33.05223 38806 ft 483 kts 175°
2026-04-24 19:34 15.10246 33.06246 38807 ft 484 kts 175°
2026-04-24 19:34 15.03582 33.07276 38805 ft 484 kts 175°
2026-04-24 19:35 14.96916 33.08306 38807 ft 485 kts 175°
2026-04-24 19:35 14.90240 33.09337 38805 ft 485 kts 175°
2026-04-24 19:36 14.83611 33.10360 38807 ft 485 kts 175°
2026-04-24 19:36 14.76928 33.11391 38803 ft 485 kts 175°
2026-04-24 19:37 14.70251 33.12420 38801 ft 485 kts 175°
2026-04-24 19:37 14.63562 33.13451 38801 ft 486 kts 175°
2026-04-24 19:38 14.56878 33.14480 38800 ft 486 kts 175°
2026-04-24 19:38 14.50239 33.15501 38799 ft 486 kts 175°
2026-04-24 19:39 14.43555 33.16528 38799 ft 486 kts 175°
2026-04-24 19:39 14.36867 33.17556 38798 ft 486 kts 175°
2026-04-24 19:40 14.30178 33.18583 38797 ft 486 kts 175°
2026-04-24 19:40 14.23537 33.19603 38795 ft 486 kts 175°
2026-04-24 19:41 14.16852 33.20629 38809 ft 486 kts 175°
2026-04-24 19:41 14.10160 33.21655 38803 ft 486 kts 175°
2026-04-24 19:42 14.03476 33.22679 38793 ft 486 kts 175°
2026-04-24 19:42 13.96830 33.23697 38799 ft 486 kts 175°
2026-04-24 19:43 13.90141 33.24721 38799 ft 486 kts 175°
2026-04-24 19:43 13.83454 33.25744 38788 ft 486 kts 175°
2026-04-24 19:44 13.76760 33.26767 38800 ft 486 kts 175°
2026-04-24 19:44 13.70067 33.27790 38792 ft 486 kts 175°
2026-04-24 19:45 13.63415 33.28806 38786 ft 487 kts 175°
2026-04-24 19:45 13.56715 33.29829 38794 ft 487 kts 175°
2026-04-24 19:46 13.50018 33.30850 38796 ft 487 kts 174°
2026-04-24 19:46 13.43316 33.31872 38793 ft 487 kts 175°
2026-04-24 19:47 13.36657 33.32887 38791 ft 487 kts 174°
2026-04-24 19:47 13.29956 33.33907 38787 ft 487 kts 174°
2026-04-24 19:48 13.23250 33.34928 38786 ft 487 kts 174°
2026-04-24 19:48 13.13197 33.36457 38782 ft 487 kts 174°
2026-04-24 19:49 12.99837 33.38487 38785 ft 487 kts 174°
2026-04-24 19:50 12.86451 33.40519 38790 ft 486 kts 174°
2026-04-24 19:51 12.76460 33.42034 38780 ft 486 kts 174°
2026-04-24 19:52 12.66438 33.43553 38786 ft 485 kts 174°
2026-04-24 19:52 12.59760 33.44564 38784 ft 485 kts 174°
2026-04-24 19:53 12.53129 33.45567 38790 ft 485 kts 174°
2026-04-24 19:54 12.43124 33.47080 38783 ft 484 kts 174°
2026-04-24 19:54 12.36455 33.48088 38781 ft 484 kts 174°
2026-04-24 19:55 12.32040 33.48755 38792 ft 484 kts 174°
2026-04-24 19:55 12.23160 33.50096 38792 ft 485 kts 174°
2026-04-24 19:56 12.16501 33.51101 38788 ft 485 kts 174°
2026-04-24 19:56 12.09811 33.52110 38788 ft 485 kts 174°
2026-04-24 19:57 12.03133 33.53117 38789 ft 485 kts 174°
2026-04-24 19:57 11.96496 33.54117 38797 ft 485 kts 174°
2026-04-24 19:58 11.89817 33.55123 38792 ft 485 kts 174°
2026-04-24 19:58 11.83133 33.56129 38795 ft 485 kts 174°
2026-04-24 19:59 11.76446 33.57135 38792 ft 486 kts 174°
2026-04-24 19:59 11.69761 33.58140 38795 ft 486 kts 174°
2026-04-24 20:00 11.63121 33.59139 38801 ft 486 kts 174°
2026-04-24 20:00 11.56427 33.60144 38797 ft 486 kts 174°
2026-04-24 20:01 11.49737 33.61149 38797 ft 486 kts 173°
2026-04-24 20:01 11.43048 33.62153 38802 ft 486 kts 173°
2026-04-24 20:02 11.37491 33.62987 38804 ft 486 kts 173°
2026-04-24 20:02 11.29718 33.64152 38802 ft 486 kts 173°
2026-04-24 20:03 11.23028 33.65155 38805 ft 486 kts 173°
2026-04-24 20:03 11.16340 33.66157 38800 ft 486 kts 173°
2026-04-24 20:04 11.09695 33.67152 38801 ft 486 kts 173°
2026-04-24 20:04 11.03008 33.68153 38813 ft 486 kts 173°
2026-04-24 20:05 10.96310 33.69156 38806 ft 487 kts 173°
2026-04-24 20:05 10.89602 33.70159 38805 ft 487 kts 173°
2026-04-24 20:06 10.82893 33.71158 38803 ft 487 kts 173°
2026-04-24 20:06 10.76231 33.72148 38810 ft 488 kts 173°
2026-04-24 20:07 10.70640 33.72979 38814 ft 488 kts 173°
2026-04-24 20:07 10.62783 33.74147 38814 ft 489 kts 173°
2026-04-24 20:08 10.56049 33.75148 38807 ft 489 kts 173°
2026-04-24 20:08 10.49359 33.76142 38808 ft 489 kts 173°
2026-04-24 20:09 10.42623 33.77144 38814 ft 489 kts 173°
2026-04-24 20:09 10.35880 33.78148 38814 ft 490 kts 173°
2026-04-24 20:10 10.29139 33.79151 38815 ft 490 kts 173°
2026-04-24 20:10 10.22443 33.80148 38815 ft 490 kts 173°
2026-04-24 20:11 10.15701 33.81151 38818 ft 489 kts 173°
2026-04-24 20:11 10.08966 33.82152 38818 ft 489 kts 173°
2026-04-24 20:12 10.02235 33.83152 38822 ft 489 kts 173°
2026-04-24 20:12 9.96645 33.83983 38822 ft 489 kts 173°
2026-04-24 20:13 9.88814 33.85145 38932 ft 491 kts 173°
2026-04-24 20:13 9.85441 33.85646 39166 ft 489 kts 173°
2026-04-24 20:13 9.82079 33.86145 39428 ft 487 kts 173°
2026-04-24 20:13 9.78734 33.86642 39690 ft 485 kts 173°
2026-04-24 20:14 9.75391 33.87138 39766 ft 487 kts 173°
2026-04-24 20:14 9.68675 33.88133 39834 ft 487 kts 173°
2026-04-24 20:15 9.62033 33.89118 39835 ft 484 kts 173°
2026-04-24 20:15 9.55375 33.90105 39842 ft 482 kts 173°
2026-04-24 20:16 9.48743 33.91087 39844 ft 481 kts 173°
2026-04-24 20:16 9.42123 33.92068 39847 ft 481 kts 173°
2026-04-24 20:17 9.35541 33.93042 39846 ft 481 kts 172°
2026-04-24 20:17 9.25754 33.95442 39850 ft 484 kts 165°
2026-04-24 20:18 9.20355 33.96989 39849 ft 486 kts 165°
2026-04-24 20:18 9.13834 33.98833 39846 ft 487 kts 165°
2026-04-24 20:19 9.06227 34.00950 39846 ft 488 kts 166°
2026-04-24 20:19 8.99667 34.02765 39845 ft 489 kts 166°
2026-04-24 20:20 8.94211 34.04274 39846 ft 489 kts 166°
2026-04-24 20:20 8.87644 34.06092 39842 ft 489 kts 166°
2026-04-24 20:21 8.80022 34.08202 39840 ft 488 kts 166°
2026-04-24 20:21 8.73471 34.10015 39841 ft 488 kts 166°
2026-04-24 20:22 8.68029 34.11520 39836 ft 488 kts 166°
2026-04-24 20:22 8.61489 34.13329 39833 ft 487 kts 166°
2026-04-24 20:23 8.54957 34.15134 39835 ft 487 kts 166°
2026-04-24 20:23 8.48424 34.16939 39836 ft 486 kts 166°
2026-04-24 20:24 8.41940 34.18730 39833 ft 486 kts 166°
2026-04-24 20:24 8.35414 34.20532 39831 ft 486 kts 166°
2026-04-24 20:25 8.28892 34.22332 39828 ft 486 kts 166°
2026-04-24 20:25 8.22366 34.24133 39829 ft 486 kts 166°
2026-04-24 20:26 8.15887 34.25921 39831 ft 486 kts 166°
2026-04-24 20:26 8.09363 34.27720 39829 ft 486 kts 166°
2026-04-24 20:27 8.02846 34.29513 39831 ft 486 kts 166°
2026-04-24 20:27 7.96325 34.31298 39831 ft 486 kts 166°
2026-04-24 20:28 7.89799 34.33084 39831 ft 486 kts 166°
2026-04-24 20:28 7.83325 34.34857 39834 ft 485 kts 166°
2026-04-24 20:29 7.76812 34.36640 39833 ft 485 kts 166°
2026-04-24 20:29 7.70296 34.38424 39830 ft 485 kts 166°
2026-04-24 20:30 7.63786 34.40205 39832 ft 485 kts 166°
2026-04-24 20:30 7.57325 34.41972 39832 ft 484 kts 166°
2026-04-24 20:31 7.50822 34.43751 39837 ft 484 kts 166°
2026-04-24 20:31 7.44316 34.45529 39840 ft 484 kts 166°
2026-04-24 20:32 7.37819 34.47305 39841 ft 484 kts 166°
2026-04-24 20:32 7.31369 34.49067 39840 ft 484 kts 166°
2026-04-24 20:33 7.24874 34.50841 39847 ft 484 kts 166°
2026-04-24 20:33 7.18382 34.52614 39847 ft 483 kts 166°
2026-04-24 20:34 7.11886 34.54387 39851 ft 483 kts 166°
2026-04-24 20:34 7.05438 34.56146 39849 ft 483 kts 166°
2026-04-24 20:35 6.98947 34.57917 39853 ft 483 kts 165°
2026-04-24 20:35 6.92453 34.59688 39856 ft 483 kts 165°
2026-04-24 20:36 6.85963 34.61458 39862 ft 483 kts 165°
2026-04-24 20:36 6.79466 34.63229 39863 ft 484 kts 165°
2026-04-24 20:37 6.72974 34.64999 39865 ft 484 kts 165°
2026-04-24 20:37 6.66520 34.66757 39866 ft 484 kts 165°
2026-04-24 20:38 6.60014 34.68481 39872 ft 484 kts 166°
2026-04-24 20:38 6.53494 34.70183 39875 ft 484 kts 166°
2026-04-24 20:39 6.46966 34.71891 39881 ft 484 kts 166°
2026-04-24 20:39 6.40485 34.73592 39884 ft 485 kts 166°
2026-04-24 20:40 6.33957 34.75307 39882 ft 485 kts 166°
2026-04-24 20:40 6.27423 34.77024 39886 ft 486 kts 166°
2026-04-24 20:41 6.20881 34.78742 39892 ft 486 kts 166°
2026-04-24 20:41 6.14383 34.80448 39898 ft 486 kts 166°
2026-04-24 20:42 6.07847 34.82163 39900 ft 486 kts 166°
2026-04-24 20:42 6.01304 34.83879 39904 ft 486 kts 166°
2026-04-24 20:43 5.94761 34.85596 39905 ft 486 kts 166°
2026-04-24 20:43 5.88263 34.87299 39904 ft 486 kts 166°
2026-04-24 20:44 5.81716 34.89015 39900 ft 486 kts 166°
2026-04-24 20:44 5.75173 34.90731 39899 ft 486 kts 166°
2026-04-24 20:45 5.68624 34.92447 39893 ft 486 kts 166°
2026-04-24 20:45 5.62119 34.94151 39884 ft 486 kts 166°
2026-04-24 20:46 5.55571 34.95866 39882 ft 487 kts 166°
2026-04-24 20:46 5.49018 34.97582 39873 ft 487 kts 166°
2026-04-24 20:47 5.42459 34.99300 39864 ft 487 kts 166°
2026-04-24 20:47 5.35907 35.01015 39856 ft 487 kts 166°
2026-04-24 20:48 5.29395 35.02723 39849 ft 487 kts 165°
2026-04-24 20:48 5.22857 35.04499 39842 ft 487 kts 165°
2026-04-24 20:49 5.16321 35.06297 39834 ft 487 kts 165°
2026-04-24 20:49 5.09786 35.08088 39833 ft 487 kts 165°
2026-04-24 20:50 5.03291 35.09862 39834 ft 487 kts 165°
2026-04-24 20:50 4.96752 35.11644 39834 ft 487 kts 165°
2026-04-24 20:51 4.90210 35.13428 39833 ft 487 kts 165°
2026-04-24 20:51 4.83670 35.15212 39840 ft 487 kts 165°
2026-04-24 20:52 4.77123 35.16997 39838 ft 488 kts 165°
2026-04-24 20:52 4.70618 35.18770 39846 ft 488 kts 165°
2026-04-24 20:53 4.65187 35.20250 39843 ft 488 kts 165°
2026-04-24 20:53 4.58626 35.22037 39847 ft 488 kts 165°
2026-04-24 20:54 4.52066 35.23825 39840 ft 489 kts 165°
2026-04-24 20:54 4.45544 35.25601 39846 ft 489 kts 165°
2026-04-24 20:55 4.38975 35.27390 39840 ft 489 kts 165°
2026-04-24 20:55 4.32404 35.29179 39840 ft 489 kts 165°
2026-04-24 20:56 4.25875 35.30957 39843 ft 490 kts 165°
2026-04-24 20:56 4.19300 35.32747 39842 ft 490 kts 165°
2026-04-24 20:57 4.12722 35.34537 39848 ft 490 kts 165°
2026-04-24 20:57 4.06138 35.36329 39848 ft 490 kts 165°
2026-04-24 20:58 3.99556 35.38119 39846 ft 491 kts 165°
2026-04-24 20:58 3.92990 35.39852 39846 ft 491 kts 166°
2026-04-24 20:59 3.86375 35.41568 39850 ft 492 kts 166°
2026-04-24 20:59 3.79747 35.43293 39850 ft 492 kts 166°
2026-04-24 21:00 3.73121 35.45022 39847 ft 492 kts 166°
2026-04-24 21:00 3.66548 35.46740 39849 ft 491 kts 166°
2026-04-24 21:01 3.59938 35.48468 39839 ft 491 kts 166°
2026-04-24 21:01 3.53335 35.50192 39841 ft 490 kts 166°
2026-04-24 21:02 3.46737 35.51916 39840 ft 489 kts 166°
2026-04-24 21:02 3.40149 35.53637 39836 ft 489 kts 166°
2026-04-24 21:03 3.33567 35.55355 39840 ft 489 kts 166°
2026-04-24 21:03 3.27034 35.57061 39832 ft 489 kts 166°
2026-04-24 21:04 3.20453 35.58780 39838 ft 488 kts 166°
2026-04-24 21:04 3.13874 35.60497 39840 ft 489 kts 166°
2026-04-24 21:05 3.07286 35.61946 39838 ft 488 kts 171°
2026-04-24 21:05 3.00579 35.63001 39837 ft 488 kts 172°
2026-04-24 21:06 2.93864 35.64028 39837 ft 488 kts 172°
2026-04-24 21:06 2.87159 35.65083 39842 ft 488 kts 172°
2026-04-24 21:07 2.80496 35.66149 39837 ft 488 kts 172°
2026-04-24 21:07 2.73792 35.67225 39843 ft 488 kts 172°
2026-04-24 21:08 2.67089 35.68300 39849 ft 488 kts 172°
2026-04-24 21:08 2.60382 35.69374 39851 ft 488 kts 172°
2026-04-24 21:09 2.53679 35.70447 39847 ft 488 kts 172°
2026-04-24 21:09 2.47030 35.71511 39852 ft 487 kts 172°
2026-04-24 21:10 2.40331 35.72584 39853 ft 487 kts 172°
2026-04-24 21:10 2.33631 35.73656 39861 ft 487 kts 172°
2026-04-24 21:11 2.26936 35.74727 39862 ft 487 kts 172°
2026-04-24 21:11 2.20278 35.75793 39866 ft 487 kts 172°
2026-04-24 21:12 2.13585 35.76864 39867 ft 487 kts 172°
2026-04-24 21:12 2.06888 35.77935 39873 ft 487 kts 172°
2026-04-24 21:13 2.00191 35.79006 39883 ft 487 kts 172°
2026-04-24 21:13 1.93501 35.80077 39882 ft 487 kts 172°
2026-04-24 21:14 1.86854 35.81140 39881 ft 487 kts 172°
2026-04-24 21:14 1.80162 35.82211 39889 ft 487 kts 172°
2026-04-24 21:15 1.73481 35.83279 39892 ft 486 kts 172°
2026-04-24 21:15 1.66801 35.84348 39895 ft 486 kts 172°
2026-04-24 21:16 1.60180 35.85467 39902 ft 486 kts 169°
2026-04-24 21:16 1.53613 35.87118 39909 ft 487 kts 165°
2026-04-24 21:17 1.47089 35.88939 39911 ft 487 kts 166°
2026-04-24 21:17 1.40545 35.90716 39915 ft 487 kts 166°
2026-04-24 21:18 1.34028 35.92420 39918 ft 487 kts 166°
2026-04-24 21:18 1.27462 35.94122 39913 ft 487 kts 166°
2026-04-24 21:19 1.20900 35.95827 39912 ft 487 kts 166°
2026-04-24 21:19 1.14338 35.97538 39929 ft 487 kts 166°
2026-04-24 21:20 1.04541 36.00096 39928 ft 487 kts 166°
2026-04-24 21:21 0.97980 36.01807 39932 ft 487 kts 166°
2026-04-24 21:21 0.91419 36.03518 39943 ft 487 kts 166°
2026-04-24 21:22 0.84860 36.05229 39943 ft 487 kts 166°
2026-04-24 21:22 0.78343 36.06929 39956 ft 487 kts 166°
2026-04-24 21:23 0.71785 36.08640 39961 ft 487 kts 166°
2026-04-24 21:23 0.65220 36.10352 39969 ft 488 kts 166°
2026-04-24 21:24 0.58658 36.12064 39978 ft 487 kts 166°
2026-04-24 21:24 0.52143 36.13763 39999 ft 487 kts 166°
2026-04-24 21:25 0.45580 36.15474 39879 ft 489 kts 166°
2026-04-24 21:25 0.42283 36.16334 39417 ft 489 kts 166°
2026-04-24 21:25 0.39031 36.17183 38931 ft 476 kts 166°
2026-04-24 21:25 0.35855 36.18013 38404 ft 469 kts 166°
2026-04-24 21:26 0.32705 36.18834 37860 ft 468 kts 166°
2026-04-24 21:26 0.29557 36.19654 37336 ft 467 kts 166°
2026-04-24 21:26 0.26420 36.20472 36815 ft 465 kts 166°
2026-04-24 21:26 0.23335 36.21276 36315 ft 463 kts 166°
2026-04-24 21:27 0.20195 36.22095 35813 ft 459 kts 166°
2026-04-24 21:27 0.17155 36.22887 35330 ft 455 kts 165°
2026-04-24 21:27 0.14105 36.23682 34850 ft 451 kts 165°
2026-04-24 21:27 0.11080 36.24471 34380 ft 447 kts 165°
2026-04-24 21:28 0.08081 36.25253 33891 ft 444 kts 165°
2026-04-24 21:28 0.05104 36.26030 33367 ft 440 kts 165°
2026-04-24 21:28 0.02155 36.26799 32852 ft 436 kts 165°
2026-04-24 21:28 -0.00768 36.27561 32350 ft 433 kts 165°
2026-04-24 21:29 -0.03632 36.28308 31856 ft 429 kts 165°
2026-04-24 21:29 -0.06509 36.29059 31371 ft 425 kts 165°
2026-04-24 21:29 -0.09363 36.29803 30891 ft 422 kts 165°
2026-04-24 21:29 -0.12194 36.30541 30423 ft 419 kts 165°
2026-04-24 21:30 -0.15006 36.31275 29922 ft 416 kts 165°
2026-04-24 21:30 -0.17793 36.32002 29374 ft 413 kts 165°
2026-04-24 21:30 -0.20562 36.32724 28841 ft 410 kts 165°
2026-04-24 21:30 -0.23274 36.33431 28318 ft 406 kts 165°
2026-04-24 21:31 -0.25998 36.34141 27810 ft 403 kts 165°
2026-04-24 21:31 -0.28699 36.34846 27303 ft 400 kts 165°
2026-04-24 21:31 -0.31381 36.35545 26808 ft 396 kts 165°
2026-04-24 21:31 -0.34036 36.36238 26314 ft 393 kts 165°
2026-04-24 21:32 -0.36677 36.36926 25845 ft 391 kts 165°
2026-04-24 21:32 -0.39297 36.37610 25360 ft 388 kts 165°
2026-04-24 21:32 -0.41898 36.38289 24907 ft 385 kts 165°
2026-04-24 21:32 -0.44485 36.38963 24442 ft 383 kts 165°
2026-04-24 21:33 -0.47054 36.39633 23995 ft 380 kts 164°
2026-04-24 21:33 -0.49566 36.40287 23527 ft 378 kts 164°
2026-04-24 21:33 -0.52103 36.40949 22996 ft 375 kts 164°
2026-04-24 21:33 -0.54617 36.41605 22468 ft 373 kts 164°
2026-04-24 21:34 -0.57119 36.42258 21957 ft 370 kts 164°
2026-04-24 21:34 -0.59602 36.42906 21309 ft 371 kts 164°
2026-04-24 21:34 -0.62086 36.43554 20920 ft 365 kts 164°
2026-04-24 21:34 -0.64521 36.44187 20513 ft 359 kts 164°
2026-04-24 21:35 -0.66931 36.44816 20071 ft 357 kts 164°
2026-04-24 21:35 -0.69325 36.45441 19598 ft 355 kts 164°
2026-04-24 21:35 -0.71683 36.46056 19153 ft 353 kts 164°
2026-04-24 21:35 -0.74053 36.46674 18740 ft 351 kts 164°
2026-04-24 21:36 -0.76408 36.47288 18309 ft 348 kts 163°
2026-04-24 21:36 -0.78743 36.47897 17844 ft 346 kts 163°
2026-04-24 21:36 -0.81055 36.48500 17489 ft 341 kts 163°
2026-04-24 21:36 -0.83351 36.49099 17172 ft 340 kts 163°
2026-04-24 21:37 -0.85636 36.49696 16853 ft 339 kts 163°
2026-04-24 21:37 -0.87915 36.50291 16535 ft 337 kts 164°
2026-04-24 21:37 -0.90135 36.50869 16196 ft 322 kts 163°
2026-04-24 21:37 -0.92220 36.51412 15877 ft 306 kts 163°
2026-04-24 21:38 -0.94238 36.51937 15540 ft 294 kts 163°
2026-04-24 21:38 -0.96196 36.52447 15236 ft 290 kts 163°
2026-04-24 21:38 -0.98159 36.52961 14948 ft 293 kts 163°
2026-04-24 21:38 -1.00142 36.53480 14657 ft 295 kts 163°
2026-04-24 21:39 -1.02125 36.53998 14372 ft 293 kts 163°
2026-04-24 21:39 -1.04091 36.54510 14076 ft 291 kts 163°
2026-04-24 21:39 -1.06044 36.55020 13755 ft 289 kts 163°
2026-04-24 21:39 -1.07974 36.55524 13478 ft 285 kts 163°
2026-04-24 21:40 -1.09853 36.56014 13224 ft 281 kts 163°
2026-04-24 21:40 -1.11773 36.56515 13017 ft 289 kts 163°
2026-04-24 21:40 -1.13725 36.57024 12765 ft 289 kts 163°
2026-04-24 21:40 -1.15624 36.57520 12506 ft 285 kts 163°
2026-04-24 21:41 -1.17520 36.58015 12274 ft 279 kts 164°
2026-04-24 21:41 -1.19386 36.58502 12018 ft 275 kts 163°
2026-04-24 21:41 -1.21231 36.58984 11771 ft 274 kts 164°
2026-04-24 21:41 -1.23073 36.59464 11529 ft 273 kts 164°
2026-04-24 21:42 -1.24886 36.59937 11322 ft 272 kts 164°
2026-04-24 21:42 -1.26718 36.60416 11085 ft 272 kts 164°
2026-04-24 21:42 -1.28544 36.60892 10851 ft 271 kts 164°
2026-04-24 21:42 -1.30368 36.61368 10628 ft 271 kts 164°
2026-04-24 21:43 -1.32190 36.61844 10394 ft 270 kts 164°
2026-04-24 21:43 -1.34009 36.62318 10155 ft 269 kts 164°
2026-04-24 21:43 -1.35805 36.62787 10049 ft 264 kts 164°
2026-04-24 21:43 -1.37563 36.63246 9982 ft 259 kts 163°
2026-04-24 21:44 -1.39155 36.64025 9985 ft 264 kts 137°
2026-04-24 21:44 -1.40209 36.65530 10007 ft 268 kts 111°
2026-04-24 21:44 -1.40768 36.67299 9891 ft 266 kts 106°
2026-04-24 21:44 -1.41281 36.69059 9624 ft 261 kts 106°
2026-04-24 21:45 -1.41780 36.70780 9363 ft 255 kts 106°
2026-04-24 21:45 -1.42268 36.72427 9089 ft 239 kts 106°
2026-04-24 21:45 -1.42729 36.73969 8836 ft 223 kts 106°
2026-04-24 21:45 -1.43149 36.75394 8571 ft 206 kts 102°
2026-04-24 21:46 -1.43058 36.76736 8308 ft 194 kts 67°
2026-04-24 21:46 -1.42416 36.77931 8314 ft 197 kts 62°
2026-04-24 21:46 -1.41745 36.79135 8300 ft 198 kts 60°
2026-04-24 21:46 -1.40998 36.80297 8055 ft 198 kts 57°
2026-04-24 21:47 -1.40204 36.81410 7805 ft 195 kts 55°
2026-04-24 21:47 -1.39678 36.82133 7650 ft 194 kts 55°
2026-04-24 21:47 -1.38646 36.83550 7322 ft 181 kts 55°
2026-04-24 21:47 -1.37920 36.84547 7094 ft 175 kts 55°
2026-04-24 21:48 -1.37209 36.85526 6889 ft 171 kts 55°
2026-04-24 21:48 -1.36544 36.86440 6680 ft 158 kts 55°
2026-04-24 21:48 -1.35915 36.87304 6506 ft 152 kts 55°
2026-04-24 21:48 -1.35291 36.88162 6267 ft 153 kts 54°
2026-04-24 21:49 -1.34668 36.89019 6045 ft 152 kts 53°
2026-04-24 21:49 -1.34048 36.89872 5844 ft 152 kts 53°
2026-04-24 21:49 -1.33420 36.90729 5575 ft 152 kts 53°
2026-04-24 21:49 -1.32802 36.91576 5391 ft 150 kts 53°
2026-04-24 21:50 -1.32200 36.92399 5319 ft 137 kts 54°
2026-04-24 21:50 -1.31713 36.93069 5307 ft 102 kts 53°
2026-04-24 21:50 -1.31373 36.93532 5303 ft 58 kts 54°
2026-04-24 21:50 -1.31230 36.93727 5303 ft 32 kts 54°
2026-04-24 21:51 -1.31178 36.93800 5299 ft 8 kts 65°
2026-04-24 21:51 -1.31203 36.93848 5302 ft 8 kts 138°
2026-04-24 21:51 -1.31248 36.93883 5303 ft 8 kts 143°
2026-04-24 21:51 -1.31295 36.93917 5303 ft 8 kts 144°
2026-04-24 21:52 -1.31342 36.93950 5302 ft 8 kts 144°
2026-04-24 21:52 -1.31388 36.93984 5302 ft 8 kts 144°
2026-04-24 21:52 -1.31440 36.93987 5303 ft 8 kts 212°
2026-04-24 21:52 -1.31478 36.93945 5302 ft 8 kts 232°
2026-04-24 21:53 -1.31512 36.93899 5305 ft 8 kts 233°
2026-04-24 21:53 -1.31546 36.93852 5306 ft 8 kts 234°
2026-04-24 21:53 -1.31580 36.93806 5308 ft 8 kts 233°
2026-04-24 21:53 -1.31614 36.93760 5306 ft 8 kts 233°
2026-04-24 21:54 -1.31648 36.93714 5307 ft 8 kts 234°
2026-04-24 21:54 -1.31682 36.93667 5308 ft 8 kts 234°
2026-04-24 21:54 -1.31716 36.93621 5306 ft 8 kts 234°
2026-04-24 21:54 -1.31749 36.93575 5308 ft 8 kts 234°
2026-04-24 21:55 -1.31783 36.93529 5308 ft 8 kts 234°
2026-04-24 21:55 -1.31806 36.93498 5306 ft 2 kts 233°
2026-04-24 21:55 -1.31813 36.93489 5308 ft 2 kts 233°
2026-04-24 21:55 -1.31831 36.93464 5310 ft 5 kts 233°
2026-04-24 21:56 -1.31855 36.93431 5308 ft 8 kts 234°
2026-04-24 21:56 -1.31894 36.93378 5309 ft 10 kts 234°
2026-04-24 21:56 -1.31935 36.93322 5313 ft 10 kts 233°
2026-04-24 21:56 -1.31976 36.93266 5310 ft 10 kts 234°
2026-04-24 21:57 -1.32016 36.93210 5312 ft 10 kts 233°
2026-04-24 21:57 -1.32057 36.93154 5313 ft 10 kts 233°
2026-04-24 21:57 -1.32099 36.93098 5317 ft 10 kts 234°
2026-04-24 21:57 -1.32139 36.93042 5317 ft 10 kts 234°
2026-04-24 21:58 -1.32180 36.92986 5319 ft 10 kts 234°
2026-04-24 21:58 -1.32221 36.92930 5316 ft 10 kts 234°
2026-04-24 21:58 -1.32262 36.92873 5316 ft 10 kts 234°
2026-04-24 21:58 -1.32303 36.92817 5318 ft 10 kts 233°
2026-04-24 21:59 -1.32344 36.92762 5333 ft 10 kts 234°
2026-04-24 21:59 -1.32385 36.92706 5334 ft 10 kts 234°
2026-04-24 21:59 -1.32425 36.92649 5333 ft 10 kts 234°
2026-04-24 21:59 -1.32467 36.92593 5320 ft 10 kts 233°
2026-04-24 22:00 -1.32508 36.92537 5319 ft 10 kts 233°
2026-04-24 22:00 -1.32549 36.92481 5334 ft 10 kts 234°
2026-04-24 22:00 -1.32590 36.92425 5335 ft 10 kts 234°
2026-04-24 22:00 -1.32627 36.92374 5335 ft 7 kts 234°
2026-04-24 22:01 -1.32649 36.92353 5335 ft 4 kts 211°
2026-04-24 22:01 -1.32677 36.92350 5333 ft 5 kts 172°
2026-04-24 22:01 -1.32710 36.92369 5334 ft 5 kts 146°
2026-04-24 22:01 -1.32743 36.92388 5333 ft 5 kts 158°
2026-04-24 22:02 -1.32779 36.92381 5333 ft 5 kts 212°
2026-04-24 22:02 -1.32805 36.92353 5332 ft 5 kts 231°
2026-04-24 22:02 -1.32828 36.92323 5332 ft 5 kts 232°
2026-04-24 22:02 -1.32854 36.92296 5335 ft 5 kts 224°
2026-04-24 22:03 -1.32881 36.92274 5334 ft 4 kts 218°
2026-04-24 22:03 -1.32904 36.92267 5333 ft 4 kts 171°
2026-04-24 22:03 -1.32911 36.92276 5333 ft 1 kts 126°
2026-04-24 22:03 -1.32920 36.92288 5334 ft 2 kts 125°
2026-04-24 22:04 -1.32929 36.92302 5334 ft 2 kts 121°
2026-04-24 22:04 -1.32938 36.92316 5333 ft 2 kts 122°
2026-04-24 22:04 -1.32943 36.92325 5335 ft 1 kts 121°
2026-04-24 22:04 -1.32947 36.92332 5334 ft 1 kts 121°
2026-04-24 22:05 -1.32951 36.92338 5334 ft 1 kts 121°